Location: Dealu Mare
(46.0500°N, 22.8167°E)
Time: 08:04:26
(UTC+00:00)

Okean 3 - Pass Details

Date: 15 January 2026
Orbit: 541 x 564 km, 82.5° (Epoch: 9 February)

Event Time Altitude Azimuth Distance (km) Brightness Sun altitude
Exits shadow 03:57:53 19° 1° (N) 1,328 5.2 -21.9°
Maximum altitude 04:00:37 64° 80° (E) 608 3.7 -21.4°
Drops below altitude 10° 04:04:33 10° 162° (SSE) 1,801 6.3 -20.7°
Sets 04:06:42 0° 165° (SSE) 2,687 7.2 -20.4°
